Time,TemperatureF,DewpointF,PressureIn,WindDirection,WindDirectionDegrees,WindSpeedMPH,WindSpeedGustMPH,Humidity,HourlyPrecipIn,Conditions,Clouds,dailyrainin,SolarRadiationWatts/m^2,SoftwareType,DateUTC
2013-03-11 00:03:00,54.0,27.0,-100.00,WNW,292,9.0,19.0,35,0.00,,,0.00,0.000000,,2013-03-11 04:03:00,
2013-03-11 00:11:00,53.0,27.0,-100.00,WNW,293,9.0,22.0,36,0.00,,,0.00,0.000000,,2013-03-11 04:11:00,
2013-03-11 00:33:00,53.0,27.0,-100.00,WNW,293,9.0,22.0,36,0.00,,,0.00,0.000000,,2013-03-11 04:33:00,
2013-03-11 00:43:00,53.0,27.0,-100.00,WNW,293,9.0,22.0,36,0.00,,,0.00,0.000000,,2013-03-11 04:43:00,
2013-03-11 00:53:00,53.0,27.0,-100.00,WNW,293,9.0,22.0,36,0.00,,,0.00,0.000000,,2013-03-11 04:53:00,
2013-03-11 01:03:00,53.0,27.0,-100.00,WNW,293,9.0,22.0,36,0.00,,,0.00,0.000000,,2013-03-11 05:03:00,
2013-03-11 01:11:00,53.0,27.0,-100.00,WNW,288,8.0,22.0,37,0.00,,,0.00,0.000000,,2013-03-11 05:11:00,
2013-03-11 01:32:00,53.0,27.0,-100.00,WNW,288,8.0,22.0,37,0.00,,,0.00,0.000000,,2013-03-11 05:32:00,
2013-03-11 01:43:00,53.0,27.0,-100.00,WNW,288,8.0,22.0,37,0.00,,,0.00,0.000000,,2013-03-11 05:43:00,
2013-03-11 01:52:00,53.0,27.0,-100.00,WNW,288,8.0,22.0,37,0.00,,,0.00,0.000000,,2013-03-11 05:52:00,
2013-03-11 02:02:00,53.0,27.0,-100.00,WNW,288,8.0,22.0,37,0.00,,,0.00,0.000000,,2013-03-11 06:02:00,
2013-03-11 02:11:00,52.0,28.0,-100.00,WNW,287,10.0,24.0,39,0.00,,,0.00,0.000000,,2013-03-11 06:11:00,
2013-03-11 02:33:00,52.0,28.0,-100.00,WNW,287,10.0,24.0,39,0.00,,,0.00,0.000000,,2013-03-11 06:33:00,
2013-03-11 02:42:00,52.0,28.0,-100.00,WNW,287,10.0,24.0,39,0.00,,,0.00,0.000000,,2013-03-11 06:42:00,
2013-03-11 02:53:00,52.0,28.0,-100.00,WNW,287,10.0,24.0,39,0.00,,,0.00,0.000000,,2013-03-11 06:53:00,
2013-03-11 03:03:00,52.0,28.0,-100.00,WNW,287,10.0,24.0,39,0.00,,,0.00,0.000000,,2013-03-11 07:03:00,
2013-03-11 03:11:00,52.0,30.0,-100.00,WNW,294,11.0,23.0,42,0.00,,,0.00,0.000000,,2013-03-11 07:11:00,
2013-03-11 03:33:00,52.0,30.0,-100.00,WNW,294,11.0,23.0,42,0.00,,,0.00,0.000000,,2013-03-11 07:33:00,
2013-03-11 03:42:00,52.0,30.0,-100.00,WNW,294,11.0,23.0,42,0.00,,,0.00,0.000000,,2013-03-11 07:42:00,
2013-03-11 03:52:00,52.0,30.0,-100.00,WNW,294,11.0,23.0,42,0.00,,,0.00,0.000000,,2013-03-11 07:52:00,
2013-03-11 04:02:00,52.0,30.0,-100.00,WNW,294,11.0,23.0,42,0.00,,,0.00,0.000000,,2013-03-11 08:02:00,
2013-03-11 04:11:00,52.0,31.0,-100.00,WNW,289,11.0,21.0,45,0.00,,,0.00,0.000000,,2013-03-11 08:11:00,
2013-03-11 04:42:00,52.0,31.0,-100.00,WNW,289,11.0,21.0,45,0.00,,,0.00,0.000000,,2013-03-11 08:42:00,
2013-03-11 04:52:00,52.0,31.0,-100.00,WNW,289,11.0,21.0,45,0.00,,,0.00,0.000000,,2013-03-11 08:52:00,
2013-03-11 05:02:00,52.0,31.0,-100.00,WNW,289,11.0,21.0,45,0.00,,,0.00,0.000000,,2013-03-11 09:02:00,
2013-03-11 05:11:00,52.0,33.0,-100.00,WNW,289,9.0,25.0,49,0.00,,,0.00,0.000000,,2013-03-11 09:11:00,
2013-03-11 05:32:00,52.0,33.0,-100.00,WNW,289,9.0,25.0,49,0.00,,,0.00,0.000000,,2013-03-11 09:32:00,
2013-03-11 05:42:00,52.0,33.0,-100.00,WNW,289,9.0,25.0,49,0.00,,,0.00,0.000000,,2013-03-11 09:42:00,
2013-03-11 05:53:00,52.0,33.0,-100.00,WNW,289,9.0,25.0,49,0.00,,,0.00,0.000000,,2013-03-11 09:53:00,
2013-03-11 06:02:00,52.0,33.0,-100.00,WNW,289,9.0,25.0,49,0.00,,,0.00,0.000000,,2013-03-11 10:02:00,
2013-03-11 06:11:00,51.0,35.0,-100.00,WNW,291,7.0,21.0,55,0.00,,,0.00,0.000000,,2013-03-11 10:11:00,
2013-03-11 06:33:00,51.0,35.0,-100.00,WNW,291,7.0,21.0,55,0.00,,,0.00,0.000000,,2013-03-11 10:33:00,
2013-03-11 06:42:00,51.0,35.0,-100.00,WNW,291,7.0,21.0,55,0.00,,,0.00,0.000000,,2013-03-11 10:42:00,
2013-03-11 06:53:00,51.0,35.0,-100.00,WNW,291,7.0,21.0,55,0.00,,,0.00,0.000000,,2013-03-11 10:53:00,
2013-03-11 07:02:00,51.0,35.0,-100.00,WNW,291,7.0,21.0,55,0.00,,,0.00,0.000000,,2013-03-11 11:02:00,
2013-03-11 07:11:00,51.0,38.0,-100.00,WNW,291,8.0,17.0,61,0.00,,,-99.99,0.000000,,2013-03-11 11:11:00,
2013-03-11 07:33:00,51.0,38.0,-100.00,WNW,291,8.0,17.0,61,0.00,,,-99.99,0.000000,,2013-03-11 11:33:00,
2013-03-11 07:43:00,51.0,38.0,-100.00,WNW,291,8.0,17.0,61,0.00,,,-99.99,0.000000,,2013-03-11 11:43:00,
2013-03-11 07:53:00,51.0,38.0,-100.00,WNW,291,8.0,17.0,61,0.00,,,-99.99,0.000000,,2013-03-11 11:53:00,
2013-03-11 08:02:00,51.0,38.0,-100.00,WNW,291,8.0,17.0,61,0.00,,,-99.99,0.000000,,2013-03-11 12:02:00,
2013-03-11 08:11:00,51.0,40.0,-100.00,WNW,288,4.0,16.0,66,0.00,,,-99.99,2.000000,,2013-03-11 12:11:00,
2013-03-11 08:33:00,51.0,40.0,-100.00,WNW,288,4.0,16.0,66,0.00,,,-99.99,2.000000,,2013-03-11 12:33:00,
2013-03-11 08:43:00,51.0,40.0,-100.00,WNW,288,4.0,16.0,66,0.00,,,-99.99,2.000000,,2013-03-11 12:43:00,
2013-03-11 08:53:00,51.0,40.0,-100.00,WNW,288,4.0,16.0,66,0.00,,,-99.99,2.000000,,2013-03-11 12:53:00,
2013-03-11 09:03:00,51.0,40.0,-100.00,WNW,288,4.0,16.0,66,0.00,,,-99.99,2.000000,,2013-03-11 13:03:00,
2013-03-11 09:11:00,52.0,42.0,-100.00,NW,307,8.0,17.0,69,0.00,,,0.00,38.000000,,2013-03-11 13:11:00,
2013-03-11 09:33:00,52.0,42.0,-100.00,NW,307,8.0,17.0,69,0.00,,,0.00,38.000000,,2013-03-11 13:33:00,
2013-03-11 09:43:00,52.0,42.0,-100.00,NW,307,8.0,17.0,69,0.00,,,0.00,38.000000,,2013-03-11 13:43:00,
2013-03-11 09:53:00,52.0,42.0,-100.00,NW,307,8.0,17.0,69,0.00,,,0.00,38.000000,,2013-03-11 13:53:00,
2013-03-11 10:02:00,52.0,42.0,-100.00,NW,307,8.0,17.0,69,0.00,,,0.00,38.000000,,2013-03-11 14:02:00,
2013-03-11 10:11:00,53.0,43.0,-100.00,WNW,297,10.0,22.0,69,0.00,,,0.00,94.000000,,2013-03-11 14:11:00,
2013-03-11 10:43:00,53.0,43.0,-100.00,WNW,297,10.0,22.0,69,0.00,,,0.00,94.000000,,2013-03-11 14:43:00,
2013-03-11 10:53:00,53.0,43.0,-100.00,WNW,297,10.0,22.0,69,0.00,,,0.00,94.000000,,2013-03-11 14:53:00,
2013-03-11 11:03:00,53.0,43.0,-100.00,WNW,297,10.0,22.0,69,0.00,,,0.00,94.000000,,2013-03-11 15:03:00,
2013-03-11 11:11:00,54.0,44.0,-100.00,WNW,291,11.0,24.0,69,0.00,,,0.00,140.000000,,2013-03-11 15:11:00,
2013-03-11 11:33:00,54.0,44.0,-100.00,WNW,291,11.0,24.0,69,0.00,,,0.00,140.000000,,2013-03-11 15:33:00,
2013-03-11 11:43:00,54.0,44.0,-100.00,WNW,291,11.0,24.0,69,0.00,,,0.00,140.000000,,2013-03-11 15:43:00,
2013-03-11 11:53:00,54.0,44.0,-100.00,WNW,291,11.0,24.0,69,0.00,,,0.00,140.000000,,2013-03-11 15:53:00,
2013-03-11 12:03:00,54.0,44.0,-100.00,WNW,291,11.0,24.0,69,0.00,,,0.00,140.000000,,2013-03-11 16:03:00,
2013-03-11 12:11:00,56.0,44.0,-100.00,NW,312,13.0,28.0,64,0.00,,,0.00,339.000000,,2013-03-11 16:11:00,
2013-03-11 12:32:00,56.0,44.0,-100.00,NW,312,13.0,28.0,64,0.00,,,0.00,339.000000,,2013-03-11 16:32:00,
2013-03-11 12:43:00,56.0,44.0,-100.00,NW,312,13.0,28.0,64,0.00,,,0.00,339.000000,,2013-03-11 16:43:00,
2013-03-11 12:53:00,56.0,44.0,-100.00,NW,312,13.0,28.0,64,0.00,,,0.00,339.000000,,2013-03-11 16:53:00,
2013-03-11 13:03:00,56.0,44.0,-100.00,NW,312,13.0,28.0,64,0.00,,,0.00,339.000000,,2013-03-11 17:03:00,
2013-03-11 13:11:00,57.0,44.0,-100.00,NW,304,13.0,26.0,62,0.00,,,-99.99,329.000000,,2013-03-11 17:11:00,
2013-03-11 13:42:00,57.0,44.0,-100.00,NW,304,13.0,26.0,62,0.00,,,-99.99,329.000000,,2013-03-11 17:42:00,
2013-03-11 13:53:00,57.0,44.0,-100.00,NW,304,13.0,26.0,62,0.00,,,-99.99,329.000000,,2013-03-11 17:53:00,
2013-03-11 14:02:00,57.0,44.0,-100.00,NW,304,13.0,26.0,62,0.00,,,-99.99,329.000000,,2013-03-11 18:02:00,
2013-03-11 14:11:00,58.0,45.0,-100.00,NW,308,10.0,29.0,61,0.00,,,0.00,455.000000,,2013-03-11 18:11:00,
2013-03-11 14:33:00,58.0,45.0,-100.00,NW,308,10.0,29.0,61,0.00,,,0.00,455.000000,,2013-03-11 18:33:00,
2013-03-11 14:43:00,58.0,45.0,-100.00,NW,308,10.0,29.0,61,0.00,,,0.00,455.000000,,2013-03-11 18:43:00,
2013-03-11 14:53:00,58.0,45.0,-100.00,NW,308,10.0,29.0,61,0.00,,,0.00,455.000000,,2013-03-11 18:53:00,
2013-03-11 15:02:00,58.0,45.0,-100.00,NW,308,10.0,29.0,61,0.00,,,0.00,455.000000,,2013-03-11 19:02:00,
2013-03-11 15:11:00,58.0,45.0,-100.00,NW,304,10.0,22.0,61,0.00,,,0.00,352.000000,,2013-03-11 19:11:00,
2013-03-11 15:43:00,58.0,45.0,-100.00,NW,304,10.0,22.0,61,0.00,,,0.00,352.000000,,2013-03-11 19:43:00,
2013-03-11 15:53:00,58.0,45.0,-100.00,NW,304,10.0,22.0,61,0.00,,,0.00,352.000000,,2013-03-11 19:53:00,
2013-03-11 16:02:00,58.0,45.0,-100.00,NW,304,10.0,22.0,61,0.00,,,0.00,352.000000,,2013-03-11 20:02:00,
2013-03-11 16:11:00,55.0,43.0,-100.00,NW,316,10.0,22.0,65,0.00,,,0.00,169.000000,,2013-03-11 20:11:00,
2013-03-11 16:33:00,55.0,43.0,-100.00,NW,316,10.0,22.0,65,0.00,,,0.00,169.000000,,2013-03-11 20:33:00,
2013-03-11 16:44:00,55.0,43.0,-100.00,NW,316,10.0,22.0,65,0.00,,,0.00,169.000000,,2013-03-11 20:44:00,
2013-03-11 16:53:00,55.0,43.0,-100.00,NW,316,10.0,22.0,65,0.00,,,0.00,169.000000,,2013-03-11 20:53:00,
2013-03-11 17:03:00,55.0,43.0,-100.00,NW,316,10.0,22.0,65,0.00,,,0.00,169.000000,,2013-03-11 21:03:00,
2013-03-11 17:11:00,52.0,45.0,-100.00,NW,314,5.0,17.0,78,0.07,,,0.07,81.000000,,2013-03-11 21:11:00,
2013-03-11 17:33:00,52.0,45.0,-100.00,NW,314,5.0,17.0,78,0.07,,,0.07,81.000000,,2013-03-11 21:33:00,
2013-03-11 17:44:00,52.0,45.0,-100.00,NW,314,5.0,17.0,78,0.07,,,0.07,81.000000,,2013-03-11 21:44:00,
2013-03-11 17:54:00,52.0,45.0,-100.00,NW,314,5.0,17.0,78,0.07,,,0.07,81.000000,,2013-03-11 21:54:00,
2013-03-11 18:03:00,52.0,45.0,-100.00,NW,314,5.0,17.0,78,0.07,,,0.07,81.000000,,2013-03-11 22:03:00,
2013-03-11 18:11:00,50.0,48.0,-100.00,ENE,68,5.0,11.0,92,0.14,,,0.21,41.000000,,2013-03-11 22:11:00,
2013-03-11 18:33:00,50.0,48.0,-100.00,ENE,68,5.0,11.0,92,0.14,,,0.21,41.000000,,2013-03-11 22:33:00,
2013-03-11 18:43:00,50.0,48.0,-100.00,ENE,68,5.0,11.0,92,0.14,,,0.21,41.000000,,2013-03-11 22:43:00,
2013-03-11 18:53:00,50.0,48.0,-100.00,ENE,68,5.0,11.0,92,0.14,,,0.21,41.000000,,2013-03-11 22:53:00,
2013-03-11 19:03:00,50.0,48.0,-100.00,ENE,68,5.0,11.0,92,0.14,,,0.21,41.000000,,2013-03-11 23:03:00,
2013-03-11 19:11:00,49.0,46.0,-100.00,ENE,69,4.0,11.0,91,0.08,,,0.29,19.000000,,2013-03-11 23:11:00,
2013-03-11 19:33:00,49.0,46.0,-100.00,ENE,69,4.0,11.0,91,0.08,,,0.29,19.000000,,2013-03-11 23:33:00,
2013-03-11 19:43:00,49.0,46.0,-100.00,ENE,69,4.0,11.0,91,0.08,,,0.29,19.000000,,2013-03-11 23:43:00,
2013-03-11 19:54:00,49.0,46.0,-100.00,ENE,69,4.0,11.0,91,0.08,,,0.29,19.000000,,2013-03-11 23:54:00,
2013-03-11 20:02:00,49.0,46.0,-100.00,ENE,69,4.0,11.0,91,0.08,,,0.29,19.000000,,2013-03-12 00:02:00,
2013-03-11 20:11:00,49.0,47.0,-100.00,WNW,294,7.0,18.0,93,0.12,,,0.41,1.000000,,2013-03-12 00:11:00,
2013-03-11 20:33:00,49.0,47.0,-100.00,WNW,294,7.0,18.0,93,0.12,,,0.41,1.000000,,2013-03-12 00:33:00,
2013-03-11 20:43:00,49.0,47.0,-100.00,WNW,294,7.0,18.0,93,0.12,,,0.41,1.000000,,2013-03-12 00:43:00,
2013-03-11 20:54:00,49.0,47.0,-100.00,WNW,294,7.0,18.0,93,0.12,,,0.41,1.000000,,2013-03-12 00:54:00,
2013-03-11 21:02:00,49.0,47.0,-100.00,WNW,294,7.0,18.0,93,0.12,,,0.41,1.000000,,2013-03-12 01:02:00,
2013-03-11 21:11:00,49.0,46.0,-100.00,SE,142,3.0,23.0,88,0.02,,,0.43,0.000000,,2013-03-12 01:11:00,
2013-03-11 21:33:00,49.0,46.0,-100.00,SE,142,3.0,23.0,88,0.02,,,0.43,0.000000,,2013-03-12 01:33:00,
2013-03-11 21:42:00,49.0,46.0,-100.00,SE,142,3.0,23.0,88,0.02,,,0.43,0.000000,,2013-03-12 01:42:00,
2013-03-11 21:53:00,49.0,46.0,-100.00,SE,142,3.0,23.0,88,0.02,,,0.43,0.000000,,2013-03-12 01:53:00,
2013-03-11 22:02:00,49.0,46.0,-100.00,SE,142,3.0,23.0,88,0.02,,,0.43,0.000000,,2013-03-12 02:02:00,
2013-03-11 22:11:00,49.0,46.0,-100.00,SSW,193,3.0,11.0,89,0.01,,,0.44,0.000000,,2013-03-12 02:11:00,
2013-03-11 22:32:00,49.0,46.0,-100.00,SSW,193,3.0,11.0,89,0.01,,,0.44,0.000000,,2013-03-12 02:32:00,
2013-03-11 22:43:00,49.0,46.0,-100.00,SSW,193,3.0,11.0,89,0.01,,,0.44,0.000000,,2013-03-12 02:43:00,
2013-03-11 22:52:00,49.0,46.0,-100.00,SSW,193,3.0,11.0,89,0.01,,,0.44,0.000000,,2013-03-12 02:52:00,
2013-03-11 23:02:00,49.0,46.0,-100.00,SSW,193,3.0,11.0,89,0.01,,,0.44,0.000000,,2013-03-12 03:02:00,
2013-03-11 23:11:00,48.0,46.0,-100.00,East,86,2.0,5.0,94,0.04,,,0.48,0.000000,,2013-03-12 03:11:00,
2013-03-11 23:43:00,48.0,46.0,-100.00,East,86,2.0,5.0,94,0.04,,,0.48,0.000000,,2013-03-12 03:43:00,
2013-03-11 23:53:00,48.0,46.0,-100.00,East,86,2.0,5.0,94,0.04,,,0.48,0.000000,,2013-03-12 03:53:00,